Year,Month,Day,Hour,Minute,Value (Times are PST for temperature in C)
2008,06,12,00,00,10.30
2008,06,12,00,01,10.30
2008,06,12,00,02,10.30
2008,06,12,00,03,10.30
2008,06,12,00,04,10.30
2008,06,12,00,05,10.30
2008,06,12,00,06,10.30
2008,06,12,00,07,10.30
2008,06,12,00,08,10.30
2008,06,12,00,09,10.30
2008,06,12,00,10,10.30
2008,06,12,00,11,10.30
2008,06,12,00,12,10.30
2008,06,12,00,13,10.30
2008,06,12,00,14,10.30
2008,06,12,00,15,10.30
2008,06,12,00,16,10.30
2008,06,12,00,17,10.30
2008,06,12,00,18,10.40
2008,06,12,00,19,10.40
2008,06,12,00,20,10.40
2008,06,12,00,21,10.40
2008,06,12,00,22,10.30
2008,06,12,00,23,10.30
2008,06,12,00,24,10.30
2008,06,12,00,25,10.30
2008,06,12,00,26,10.30
2008,06,12,00,27,10.30
2008,06,12,00,28,10.30
2008,06,12,00,29,10.30
2008,06,12,00,30,10.30
2008,06,12,00,31,10.30
2008,06,12,00,32,10.30
2008,06,12,00,33,10.20
2008,06,12,00,34,10.20
2008,06,12,00,35,10.20
2008,06,12,00,36,10.20
2008,06,12,00,37,10.20
2008,06,12,00,38,10.20
2008,06,12,00,39,10.20
2008,06,12,00,40,10.20
2008,06,12,00,41,10.20
2008,06,12,00,42,10.20
2008,06,12,00,43,10.20
2008,06,12,00,44,10.20
2008,06,12,00,45,10.20
2008,06,12,00,46,10.20
2008,06,12,00,47,10.20
2008,06,12,00,48,10.20
2008,06,12,00,49,10.20
2008,06,12,00,50,10.20
2008,06,12,00,51,10.20
2008,06,12,00,52,10.10
2008,06,12,00,53,10.10
2008,06,12,00,54,10.10
2008,06,12,00,55,10.10
2008,06,12,00,56,10.10
2008,06,12,00,57,10.10
2008,06,12,00,58,10.10
2008,06,12,00,59,10.10
2008,06,12,01,00,10.10
2008,06,12,01,01,10.00
2008,06,12,01,02,10.00
2008,06,12,01,03,10.00
2008,06,12,01,04,10.00
2008,06,12,01,05,9.90
2008,06,12,01,06,9.90
2008,06,12,01,07,9.90
2008,06,12,01,08,9.90
2008,06,12,01,09,9.90
2008,06,12,01,10,9.90
2008,06,12,01,11,9.80
2008,06,12,01,12,9.80
2008,06,12,01,13,9.80
2008,06,12,01,14,9.80
2008,06,12,01,15,9.80
2008,06,12,01,16,9.80
2008,06,12,01,17,9.80
2008,06,12,01,18,9.70
2008,06,12,01,19,9.70
2008,06,12,01,20,9.70
2008,06,12,01,21,9.70
2008,06,12,01,22,9.70
2008,06,12,01,23,9.70
2008,06,12,01,24,9.70
2008,06,12,01,25,9.70
2008,06,12,01,26,9.70
2008,06,12,01,27,9.70
2008,06,12,01,28,9.70
2008,06,12,01,29,9.70
2008,06,12,01,30,9.70
2008,06,12,01,31,9.70
2008,06,12,01,32,9.80
2008,06,12,01,33,9.80
2008,06,12,01,34,9.80
2008,06,12,01,35,9.80
2008,06,12,01,36,9.80
2008,06,12,01,37,9.80
2008,06,12,01,38,9.80
2008,06,12,01,39,9.80
2008,06,12,01,40,9.80
2008,06,12,01,41,9.80
2008,06,12,01,42,9.80
2008,06,12,01,43,9.80
2008,06,12,01,44,9.80
2008,06,12,01,45,9.80
2008,06,12,01,46,9.80
2008,06,12,01,47,9.70
2008,06,12,01,48,9.70
2008,06,12,01,49,9.70
2008,06,12,01,50,9.60
2008,06,12,01,51,9.60
2008,06,12,01,52,9.60
2008,06,12,01,53,9.60
2008,06,12,01,54,9.60
2008,06,12,01,55,9.60
2008,06,12,01,56,9.60
2008,06,12,01,57,9.60
2008,06,12,01,58,9.60
2008,06,12,01,59,9.60
2008,06,12,02,00,9.60
2008,06,12,02,01,9.60
2008,06,12,02,02,9.50
2008,06,12,02,03,9.50
2008,06,12,02,04,9.50
2008,06,12,02,05,9.50
2008,06,12,02,06,9.40
2008,06,12,02,07,9.40
2008,06,12,02,08,9.40
2008,06,12,02,09,9.40
2008,06,12,02,10,9.40
2008,06,12,02,11,9.40
2008,06,12,02,12,9.40
2008,06,12,02,13,9.40
2008,06,12,02,14,9.40
2008,06,12,02,15,9.40
2008,06,12,02,16,9.40
2008,06,12,02,17,9.40
2008,06,12,02,18,9.40
2008,06,12,02,19,9.40
2008,06,12,02,20,9.40
2008,06,12,02,21,9.40
2008,06,12,02,22,9.40
2008,06,12,02,23,9.40
2008,06,12,02,24,9.40
2008,06,12,02,25,9.40
2008,06,12,02,26,9.40
2008,06,12,02,27,9.40
2008,06,12,02,28,9.40
2008,06,12,02,29,9.40
2008,06,12,02,30,9.50
2008,06,12,02,31,9.50
2008,06,12,02,32,9.50
2008,06,12,02,33,9.60
2008,06,12,02,34,9.60
2008,06,12,02,35,9.60
2008,06,12,02,36,9.60
2008,06,12,02,37,9.60
2008,06,12,02,38,9.60
2008,06,12,02,39,9.60
2008,06,12,02,40,9.60
2008,06,12,02,41,9.60
2008,06,12,02,42,9.70
2008,06,12,02,43,9.70
2008,06,12,02,44,9.70
2008,06,12,02,45,9.70
2008,06,12,02,46,9.70
2008,06,12,02,47,9.70
2008,06,12,02,48,9.70
2008,06,12,02,49,9.80
2008,06,12,02,50,9.80
2008,06,12,02,51,9.80
2008,06,12,02,52,9.80
2008,06,12,02,53,9.80
2008,06,12,02,54,9.80
2008,06,12,02,55,9.70
2008,06,12,02,56,9.70
2008,06,12,02,57,9.70
2008,06,12,02,58,9.70
2008,06,12,02,59,9.70
2008,06,12,03,00,9.70
2008,06,12,03,01,9.60
2008,06,12,03,02,9.60
2008,06,12,03,03,9.60
2008,06,12,03,04,9.60
2008,06,12,03,05,9.60
2008,06,12,03,06,9.60
2008,06,12,03,07,9.70
2008,06,12,03,08,9.70
2008,06,12,03,09,9.70
2008,06,12,03,10,9.70
2008,06,12,03,11,9.80
2008,06,12,03,12,9.80
2008,06,12,03,13,9.80
2008,06,12,03,14,9.80
2008,06,12,03,15,9.80
2008,06,12,03,16,9.80
2008,06,12,03,17,9.80
2008,06,12,03,18,9.80
2008,06,12,03,19,9.80
2008,06,12,03,20,9.80
2008,06,12,03,21,9.80
2008,06,12,03,22,9.80
2008,06,12,03,23,9.80
2008,06,12,03,24,9.80
2008,06,12,03,25,9.80
2008,06,12,03,26,9.80
2008,06,12,03,27,9.80
2008,06,12,03,28,9.80
2008,06,12,03,29,9.80
2008,06,12,03,30,9.80
2008,06,12,03,31,9.80
2008,06,12,03,32,9.80
2008,06,12,03,33,9.80
2008,06,12,03,34,9.80
2008,06,12,03,35,9.80
2008,06,12,03,36,9.80
2008,06,12,03,37,9.80
2008,06,12,03,38,9.70
2008,06,12,03,39,9.70
2008,06,12,03,40,9.70
2008,06,12,03,41,9.70
2008,06,12,03,42,9.70
2008,06,12,03,43,9.70
2008,06,12,03,44,9.70
2008,06,12,03,45,9.60
2008,06,12,03,46,9.60
2008,06,12,03,47,9.60
2008,06,12,03,48,9.60
2008,06,12,03,49,9.60
2008,06,12,03,50,9.60
2008,06,12,03,51,9.50
2008,06,12,03,52,9.50
2008,06,12,03,53,9.40
2008,06,12,03,54,9.40
2008,06,12,03,55,9.40
2008,06,12,03,56,9.40
2008,06,12,03,57,9.30
2008,06,12,03,58,9.30
2008,06,12,03,59,9.30
2008,06,12,04,00,9.30
2008,06,12,04,01,9.30
2008,06,12,04,02,9.30
2008,06,12,04,03,9.30
2008,06,12,04,04,9.30
2008,06,12,04,05,9.30
2008,06,12,04,06,9.30
2008,06,12,04,07,9.30
2008,06,12,04,08,9.30
2008,06,12,04,09,9.30
2008,06,12,04,10,9.30
2008,06,12,04,11,9.30
2008,06,12,04,12,9.30
2008,06,12,04,13,9.30
2008,06,12,04,14,9.30
2008,06,12,04,15,9.30
2008,06,12,04,16,9.30
2008,06,12,04,17,9.30
2008,06,12,04,18,9.30
2008,06,12,04,19,9.30
2008,06,12,04,20,9.30
2008,06,12,04,21,9.30
2008,06,12,04,22,9.30
2008,06,12,04,23,9.30
2008,06,12,04,24,9.30
2008,06,12,04,25,9.30
2008,06,12,04,26,9.30
2008,06,12,04,27,9.30
2008,06,12,04,28,9.30
2008,06,12,04,29,9.30
2008,06,12,04,30,9.30
2008,06,12,04,31,9.30
2008,06,12,04,32,9.30
2008,06,12,04,33,9.30
2008,06,12,04,34,9.30
2008,06,12,04,35,9.30
2008,06,12,04,36,9.30
2008,06,12,04,37,9.30
2008,06,12,04,38,9.30
2008,06,12,04,39,9.30
2008,06,12,04,40,9.30
2008,06,12,04,41,9.30
2008,06,12,04,42,9.20
2008,06,12,04,43,9.20
2008,06,12,04,44,9.20
2008,06,12,04,45,9.20
2008,06,12,04,46,9.20
2008,06,12,04,47,9.20
2008,06,12,04,48,9.20
2008,06,12,04,49,9.20
2008,06,12,04,50,9.20
2008,06,12,04,51,9.20
2008,06,12,04,52,9.20
2008,06,12,04,53,9.20
2008,06,12,04,54,9.20
2008,06,12,04,55,9.20
2008,06,12,04,56,9.20
2008,06,12,04,57,9.20
2008,06,12,04,58,9.20
2008,06,12,04,59,9.20
2008,06,12,05,00,9.20
2008,06,12,05,01,9.20
2008,06,12,05,02,9.20
2008,06,12,05,03,9.20
2008,06,12,05,04,9.20
2008,06,12,05,05,9.20
2008,06,12,05,06,9.20
2008,06,12,05,07,9.20
2008,06,12,05,08,9.20
2008,06,12,05,09,9.20
2008,06,12,05,10,9.20
2008,06,12,05,11,9.20
2008,06,12,05,12,9.20
2008,06,12,05,13,9.20
2008,06,12,05,14,9.20
2008,06,12,05,15,9.10
2008,06,12,05,16,9.10
2008,06,12,05,17,9.10
2008,06,12,05,18,9.10
2008,06,12,05,19,9.10
2008,06,12,05,20,9.10
2008,06,12,05,21,9.10
2008,06,12,05,22,9.10
2008,06,12,05,23,9.10
2008,06,12,05,24,9.10
2008,06,12,05,25,9.10
2008,06,12,05,26,9.10
2008,06,12,05,27,9.10
2008,06,12,05,28,9.20
2008,06,12,05,29,9.20
2008,06,12,05,30,9.20
2008,06,12,05,31,9.20
2008,06,12,05,32,9.20
2008,06,12,05,33,9.30
2008,06,12,05,34,9.30
2008,06,12,05,35,9.30
2008,06,12,05,36,9.30
2008,06,12,05,37,9.40
2008,06,12,05,38,9.40
2008,06,12,05,39,9.40
2008,06,12,05,40,9.40
2008,06,12,05,41,9.40
2008,06,12,05,42,9.40
2008,06,12,05,43,9.40
2008,06,12,05,44,9.40
2008,06,12,05,45,9.40
2008,06,12,05,46,9.50
2008,06,12,05,47,9.50
2008,06,12,05,48,9.50
2008,06,12,05,49,9.50
2008,06,12,05,50,9.60
2008,06,12,05,51,9.60
2008,06,12,05,52,9.60
2008,06,12,05,53,9.60
2008,06,12,05,54,9.60
2008,06,12,05,55,9.60
2008,06,12,05,56,9.70
2008,06,12,05,57,9.70
2008,06,12,05,58,9.70
2008,06,12,05,59,9.70
2008,06,12,06,00,9.70
2008,06,12,06,01,9.80
2008,06,12,06,02,9.80
2008,06,12,06,03,9.80
2008,06,12,06,04,9.80
2008,06,12,06,05,9.80
2008,06,12,06,06,9.80
2008,06,12,06,07,9.80
2008,06,12,06,08,9.80
2008,06,12,06,09,9.80
2008,06,12,06,10,9.80
2008,06,12,06,11,9.80
2008,06,12,06,12,9.80
2008,06,12,06,13,9.80
2008,06,12,06,14,9.80
2008,06,12,06,15,9.80
2008,06,12,06,16,9.80
2008,06,12,06,17,9.90
2008,06,12,06,18,9.90
2008,06,12,06,19,9.90
2008,06,12,06,20,9.90
2008,06,12,06,21,9.90
2008,06,12,06,22,9.90
2008,06,12,06,23,9.90
2008,06,12,06,24,9.90
2008,06,12,06,25,10.00
2008,06,12,06,26,10.00
2008,06,12,06,27,10.00
2008,06,12,06,28,10.00
2008,06,12,06,29,10.00
2008,06,12,06,30,10.00
2008,06,12,06,31,10.10
2008,06,12,06,32,10.10
2008,06,12,06,33,10.10
2008,06,12,06,34,10.10
2008,06,12,06,35,10.10
2008,06,12,06,36,10.20
2008,06,12,06,37,10.20
2008,06,12,06,38,10.20
2008,06,12,06,39,10.20
2008,06,12,06,40,10.30
2008,06,12,06,41,10.30
2008,06,12,06,42,10.30
2008,06,12,06,43,10.30
2008,06,12,06,44,10.30
2008,06,12,06,45,10.30
2008,06,12,06,46,10.30
2008,06,12,06,47,10.40
2008,06,12,06,48,10.40
2008,06,12,06,49,10.40
2008,06,12,06,50,10.40
2008,06,12,06,51,10.40
2008,06,12,06,52,10.40
2008,06,12,06,53,10.40
2008,06,12,06,54,10.50
2008,06,12,06,55,10.50
2008,06,12,06,56,10.50
2008,06,12,06,57,10.50
2008,06,12,06,58,10.50
2008,06,12,06,59,10.60
2008,06,12,07,00,10.60
2008,06,12,07,01,10.60
2008,06,12,07,02,10.60
2008,06,12,07,03,10.60
2008,06,12,07,04,10.60
2008,06,12,07,05,10.60
2008,06,12,07,06,10.60
2008,06,12,07,07,10.70
2008,06,12,07,08,10.70
2008,06,12,07,09,10.70
2008,06,12,07,10,10.70
2008,06,12,07,11,10.70
2008,06,12,07,12,10.70
2008,06,12,07,13,10.80
2008,06,12,07,14,10.80
2008,06,12,07,15,10.80
2008,06,12,07,16,10.80
2008,06,12,07,17,10.80
2008,06,12,07,18,10.80
2008,06,12,07,19,10.80
2008,06,12,07,20,10.80
2008,06,12,07,21,10.90
2008,06,12,07,22,10.90
2008,06,12,07,23,10.90
2008,06,12,07,24,10.90
2008,06,12,07,25,10.90
2008,06,12,07,26,11.00
2008,06,12,07,27,11.00
2008,06,12,07,28,11.00
2008,06,12,07,29,11.00
2008,06,12,07,30,11.10
2008,06,12,07,31,11.10
2008,06,12,07,32,11.10
2008,06,12,07,33,11.10
2008,06,12,07,34,11.20
2008,06,12,07,35,11.20
2008,06,12,07,36,11.20
2008,06,12,07,37,11.20
2008,06,12,07,38,11.20
2008,06,12,07,39,11.20
2008,06,12,07,40,11.20
2008,06,12,07,41,11.20
2008,06,12,07,42,11.20
2008,06,12,07,43,11.20
2008,06,12,07,44,11.20
2008,06,12,07,45,11.30
2008,06,12,07,46,11.30
2008,06,12,07,47,11.30
2008,06,12,07,48,11.30
2008,06,12,07,49,11.40
2008,06,12,07,50,11.40
2008,06,12,07,51,11.40
2008,06,12,07,52,11.50
2008,06,12,07,53,11.50
2008,06,12,07,54,11.50
2008,06,12,07,55,11.60
2008,06,12,07,56,11.60
2008,06,12,07,57,11.60
2008,06,12,07,58,11.60
2008,06,12,07,59,11.60
2008,06,12,08,00,11.60
2008,06,12,08,01,11.70
2008,06,12,08,02,11.70
2008,06,12,08,03,11.70
2008,06,12,08,04,11.70
2008,06,12,08,05,11.70
2008,06,12,08,06,11.70
2008,06,12,08,07,11.70
2008,06,12,08,08,11.80
2008,06,12,08,09,11.80
2008,06,12,08,10,11.80
2008,06,12,08,11,11.80
2008,06,12,08,12,11.80
2008,06,12,08,13,11.90
2008,06,12,08,14,11.90
2008,06,12,08,15,11.90
2008,06,12,08,16,11.90
2008,06,12,08,17,11.90
2008,06,12,08,18,11.90
2008,06,12,08,19,11.90
2008,06,12,08,20,11.90
2008,06,12,08,21,11.90
2008,06,12,08,22,11.90
2008,06,12,08,23,12.00
2008,06,12,08,24,12.00
2008,06,12,08,25,12.10
2008,06,12,08,26,12.10
2008,06,12,08,27,12.10
2008,06,12,08,28,12.20
2008,06,12,08,29,12.30
2008,06,12,08,30,12.30
2008,06,12,08,31,12.40
2008,06,12,08,32,12.40
2008,06,12,08,33,12.40
2008,06,12,08,34,12.40
2008,06,12,08,35,12.50
2008,06,12,08,36,12.50
2008,06,12,08,37,12.60
2008,06,12,08,38,12.70
2008,06,12,08,39,12.70
2008,06,12,08,40,12.80
2008,06,12,08,41,12.80
2008,06,12,08,42,12.80
2008,06,12,08,43,12.90
2008,06,12,08,44,12.90
2008,06,12,08,45,12.90
2008,06,12,08,46,12.90
2008,06,12,08,47,12.90
2008,06,12,08,48,12.90
2008,06,12,08,49,12.90
2008,06,12,08,50,12.90
2008,06,12,08,51,12.90
2008,06,12,08,52,12.90
2008,06,12,08,53,12.90
2008,06,12,08,54,12.90
2008,06,12,08,55,12.90
2008,06,12,08,56,12.90
2008,06,12,08,57,12.90
2008,06,12,08,58,12.90
2008,06,12,08,59,13.00
2008,06,12,09,00,13.00
2008,06,12,09,01,13.10
2008,06,12,09,02,13.10
2008,06,12,09,03,13.20
2008,06,12,09,04,13.20
2008,06,12,09,05,13.20
2008,06,12,09,06,13.20
2008,06,12,09,07,13.20
2008,06,12,09,08,13.20
2008,06,12,09,09,13.30
2008,06,12,09,10,13.30
2008,06,12,09,11,13.30
2008,06,12,09,12,13.40
2008,06,12,09,13,13.40
2008,06,12,09,14,13.50
2008,06,12,09,15,13.50
2008,06,12,09,16,13.60
2008,06,12,09,17,13.60
2008,06,12,09,18,13.60
2008,06,12,09,19,13.70
2008,06,12,09,20,13.70
2008,06,12,09,21,13.70
2008,06,12,09,22,13.70
2008,06,12,09,23,13.70
2008,06,12,09,24,13.70
2008,06,12,09,25,13.70
2008,06,12,09,26,13.70
2008,06,12,09,27,13.70
2008,06,12,09,28,13.80
2008,06,12,09,29,13.80
2008,06,12,09,30,13.80
2008,06,12,09,31,13.80
2008,06,12,09,32,13.80
2008,06,12,09,33,13.80
2008,06,12,09,34,13.80
2008,06,12,09,35,13.80
2008,06,12,09,36,13.80
2008,06,12,09,37,13.90
2008,06,12,09,38,13.90
2008,06,12,09,39,13.90
2008,06,12,09,40,13.90
2008,06,12,09,41,13.80
2008,06,12,09,42,13.70
2008,06,12,09,43,13.70
2008,06,12,09,44,13.60
2008,06,12,09,45,13.50
2008,06,12,09,46,13.40
2008,06,12,09,47,13.30
2008,06,12,09,48,13.30
2008,06,12,09,49,13.40
2008,06,12,09,50,13.40
2008,06,12,09,51,13.50
2008,06,12,09,52,13.50
2008,06,12,09,53,13.50
2008,06,12,09,54,13.50
2008,06,12,09,55,13.60
2008,06,12,09,56,13.70
2008,06,12,09,57,13.80
2008,06,12,09,58,13.80
2008,06,12,09,59,13.80
2008,06,12,10,00,13.80
2008,06,12,10,01,13.80
2008,06,12,10,02,13.80
2008,06,12,10,03,13.90
2008,06,12,10,04,13.90
2008,06,12,10,05,14.00
2008,06,12,10,06,14.00
2008,06,12,10,07,14.10
2008,06,12,10,08,14.10
2008,06,12,10,09,14.20
2008,06,12,10,10,14.30
2008,06,12,10,11,14.40
2008,06,12,10,12,14.50
2008,06,12,10,13,14.60
2008,06,12,10,14,14.70
2008,06,12,10,15,14.80
2008,06,12,10,16,14.80
2008,06,12,10,17,14.90
2008,06,12,10,18,15.00
2008,06,12,10,19,15.00
2008,06,12,10,20,15.00
2008,06,12,10,21,15.00
2008,06,12,10,22,14.90
2008,06,12,10,23,15.00
2008,06,12,10,24,15.00
2008,06,12,10,25,15.00
2008,06,12,10,26,15.00
2008,06,12,10,27,15.00
2008,06,12,10,28,15.00
2008,06,12,10,29,15.00
2008,06,12,10,30,15.10
2008,06,12,10,31,15.20
2008,06,12,10,32,15.20
2008,06,12,10,33,15.10
2008,06,12,10,34,15.10
2008,06,12,10,35,15.00
2008,06,12,10,36,15.00
2008,06,12,10,37,15.00
2008,06,12,10,38,15.00
2008,06,12,10,39,15.00
2008,06,12,10,40,15.00
2008,06,12,10,41,15.00
2008,06,12,10,42,15.00
2008,06,12,10,43,15.00
2008,06,12,10,44,15.10
2008,06,12,10,45,15.20
2008,06,12,10,46,15.20
2008,06,12,10,47,15.30
2008,06,12,10,48,15.30
2008,06,12,10,49,15.30
2008,06,12,10,50,15.30
2008,06,12,10,51,15.30
2008,06,12,10,52,15.20
2008,06,12,10,53,15.20
2008,06,12,10,54,15.20
2008,06,12,10,55,15.30
2008,06,12,10,56,15.30
2008,06,12,10,57,15.30
2008,06,12,10,58,15.40
2008,06,12,10,59,15.30
2008,06,12,11,00,15.20
2008,06,12,11,01,15.20
2008,06,12,11,02,15.10
2008,06,12,11,03,15.10
2008,06,12,11,04,15.10
2008,06,12,11,05,15.00
2008,06,12,11,06,15.10
2008,06,12,11,07,15.00
2008,06,12,11,08,15.00
2008,06,12,11,09,15.00
2008,06,12,11,10,15.00
2008,06,12,11,11,15.00
2008,06,12,11,12,15.00
2008,06,12,11,13,15.00
2008,06,12,11,14,15.00
2008,06,12,11,15,15.10
2008,06,12,11,16,15.20
2008,06,12,11,17,15.00
2008,06,12,11,18,15.00
2008,06,12,11,19,15.00
2008,06,12,11,20,15.00
2008,06,12,11,21,14.90
2008,06,12,11,22,14.70
2008,06,12,11,23,14.60
2008,06,12,11,24,14.50
2008,06,12,11,25,14.60
2008,06,12,11,26,14.70
2008,06,12,11,27,14.80
2008,06,12,11,28,14.90
2008,06,12,11,29,15.00
2008,06,12,11,30,15.00
2008,06,12,11,31,15.00
2008,06,12,11,32,15.00
2008,06,12,11,33,15.00
2008,06,12,11,34,15.10
2008,06,12,11,35,15.20
2008,06,12,11,36,15.20
2008,06,12,11,37,15.20
2008,06,12,11,38,15.20
2008,06,12,11,39,15.10
2008,06,12,11,40,15.10
2008,06,12,11,41,15.10
2008,06,12,11,42,15.00
2008,06,12,11,43,15.00
2008,06,12,11,44,15.00
2008,06,12,11,45,15.00
2008,06,12,11,46,15.00
2008,06,12,11,47,15.00
2008,06,12,11,48,15.00
2008,06,12,11,49,15.00
2008,06,12,11,50,15.00
2008,06,12,11,51,15.00
2008,06,12,11,52,14.90
2008,06,12,11,53,14.90
2008,06,12,11,54,15.00
2008,06,12,11,55,15.00
2008,06,12,11,56,15.10
2008,06,12,11,57,15.30
2008,06,12,11,58,15.20
2008,06,12,11,59,15.00
2008,06,12,12,00,14.90
2008,06,12,12,01,14.80
2008,06,12,12,02,14.60
2008,06,12,12,03,14.60
2008,06,12,12,04,14.40
2008,06,12,12,05,14.40
2008,06,12,12,06,14.40
2008,06,12,12,07,14.40
2008,06,12,12,08,14.40
2008,06,12,12,09,14.30
2008,06,12,12,10,14.10
2008,06,12,12,11,14.10
2008,06,12,12,12,14.10
2008,06,12,12,13,14.20
2008,06,12,12,14,14.30
2008,06,12,12,15,14.40
2008,06,12,12,16,14.40
2008,06,12,12,17,14.50
2008,06,12,12,18,14.60
2008,06,12,12,19,14.70
2008,06,12,12,20,14.90
2008,06,12,12,21,15.00
2008,06,12,12,22,15.00
2008,06,12,12,23,15.10
2008,06,12,12,24,15.00
2008,06,12,12,25,15.00
2008,06,12,12,26,15.00
2008,06,12,12,27,15.00
2008,06,12,12,28,15.00
2008,06,12,12,29,15.00
2008,06,12,12,30,14.70
2008,06,12,12,31,14.60
2008,06,12,12,32,14.60
2008,06,12,12,33,14.60
2008,06,12,12,34,14.70
2008,06,12,12,35,14.70
2008,06,12,12,36,14.80
2008,06,12,12,37,14.90
2008,06,12,12,38,14.90
2008,06,12,12,39,15.00
2008,06,12,12,40,15.00
2008,06,12,12,41,15.00
2008,06,12,12,42,15.00
2008,06,12,12,43,14.90
2008,06,12,12,44,14.80
2008,06,12,12,45,14.90
2008,06,12,12,46,14.90
2008,06,12,12,47,14.80
2008,06,12,12,48,14.80
2008,06,12,12,49,14.80
2008,06,12,12,50,14.80
2008,06,12,12,51,14.90
2008,06,12,12,52,15.00
2008,06,12,12,53,15.00
2008,06,12,12,54,15.00
2008,06,12,12,55,15.00
2008,06,12,12,56,14.90
2008,06,12,12,57,14.80
2008,06,12,12,58,14.80
2008,06,12,12,59,14.70
2008,06,12,13,00,14.70
2008,06,12,13,01,14.70
2008,06,12,13,02,14.80
2008,06,12,13,03,14.80
2008,06,12,13,04,14.90
2008,06,12,13,05,15.00
2008,06,12,13,06,15.00
2008,06,12,13,07,15.00
2008,06,12,13,08,15.00
2008,06,12,13,09,15.20
2008,06,12,13,10,15.20
2008,06,12,13,11,15.20
2008,06,12,13,12,15.20
2008,06,12,13,13,15.20
2008,06,12,13,14,15.20
2008,06,12,13,15,15.20
2008,06,12,13,16,15.20
2008,06,12,13,17,15.20
2008,06,12,13,18,15.10
2008,06,12,13,19,15.00
2008,06,12,13,20,15.00
2008,06,12,13,21,15.00
2008,06,12,13,22,15.00
2008,06,12,13,23,15.00
2008,06,12,13,24,15.00
2008,06,12,13,25,15.00
2008,06,12,13,26,15.00
2008,06,12,13,27,15.00
2008,06,12,13,28,15.00
2008,06,12,13,29,15.10
2008,06,12,13,30,15.20
2008,06,12,13,31,15.10
2008,06,12,13,32,15.10
2008,06,12,13,33,15.20
2008,06,12,13,34,15.00
2008,06,12,13,35,15.00
2008,06,12,13,36,15.00
2008,06,12,13,37,15.00
2008,06,12,13,38,15.00
2008,06,12,13,39,15.10
2008,06,12,13,40,15.00
2008,06,12,13,41,15.00
2008,06,12,13,42,15.00
2008,06,12,13,43,15.10
2008,06,12,13,44,15.20
2008,06,12,13,45,15.30
2008,06,12,13,46,15.30
2008,06,12,13,47,15.20
2008,06,12,13,48,15.30
2008,06,12,13,49,15.20
2008,06,12,13,50,15.10
2008,06,12,13,51,15.00
2008,06,12,13,52,15.00
2008,06,12,13,53,14.90
2008,06,12,13,54,14.90
2008,06,12,13,55,14.90
2008,06,12,13,56,14.90
2008,06,12,13,57,14.90
2008,06,12,13,58,15.00
2008,06,12,13,59,15.00
2008,06,12,14,00,15.00
2008,06,12,14,01,15.00
2008,06,12,14,02,15.00
2008,06,12,14,03,15.10
2008,06,12,14,04,15.20
2008,06,12,14,05,15.20
2008,06,12,14,06,15.20
2008,06,12,14,07,15.30
2008,06,12,14,08,15.40
2008,06,12,14,09,15.60
2008,06,12,14,10,15.80
2008,06,12,14,11,15.80
2008,06,12,14,12,15.90
2008,06,12,14,13,16.00
2008,06,12,14,14,16.10
2008,06,12,14,15,16.20
2008,06,12,14,16,16.20
2008,06,12,14,17,16.30
2008,06,12,14,18,16.40
2008,06,12,14,19,16.60
2008,06,12,14,20,16.70
2008,06,12,14,21,16.80
2008,06,12,14,22,17.00
2008,06,12,14,23,17.10
2008,06,12,14,24,17.20
2008,06,12,14,25,17.30
2008,06,12,14,26,17.40
2008,06,12,14,27,17.40
2008,06,12,14,28,17.40
2008,06,12,14,29,17.40
2008,06,12,14,30,17.30
2008,06,12,14,31,17.20
2008,06,12,14,32,17.10
2008,06,12,14,33,17.10
2008,06,12,14,34,17.10
2008,06,12,14,35,17.20
2008,06,12,14,36,17.30
2008,06,12,14,37,17.40
2008,06,12,14,38,17.30
2008,06,12,14,39,17.20
2008,06,12,14,40,17.20
2008,06,12,14,41,17.20
2008,06,12,14,42,17.30
2008,06,12,14,43,17.40
2008,06,12,14,44,17.50
2008,06,12,14,45,17.50
2008,06,12,14,46,17.60
2008,06,12,14,47,17.50
2008,06,12,14,48,17.40
2008,06,12,14,49,17.30
2008,06,12,14,50,17.10
2008,06,12,14,51,17.10
2008,06,12,14,52,17.00
2008,06,12,14,53,17.00
2008,06,12,14,54,17.00
2008,06,12,14,55,17.10
2008,06,12,14,56,17.10
2008,06,12,14,57,17.20
2008,06,12,14,58,17.20
2008,06,12,14,59,17.30
2008,06,12,15,00,17.40
2008,06,12,15,01,17.40
2008,06,12,15,02,17.40
2008,06,12,15,03,17.30
2008,06,12,15,04,17.20
2008,06,12,15,05,17.20
2008,06,12,15,06,17.10
2008,06,12,15,07,16.90
2008,06,12,15,08,16.90
2008,06,12,15,09,16.80
2008,06,12,15,10,16.60
2008,06,12,15,11,16.60
2008,06,12,15,12,16.50
2008,06,12,15,13,16.50
2008,06,12,15,14,16.60
2008,06,12,15,15,16.70
2008,06,12,15,16,16.70
2008,06,12,15,17,16.70
2008,06,12,15,18,16.70
2008,06,12,15,19,16.70
2008,06,12,15,20,16.60
2008,06,12,15,21,16.60
2008,06,12,15,22,16.60
2008,06,12,15,23,16.60
2008,06,12,15,24,16.60
2008,06,12,15,25,16.60
2008,06,12,15,26,16.50
2008,06,12,15,27,16.40
2008,06,12,15,28,16.40
2008,06,12,15,29,16.40
2008,06,12,15,30,16.30
2008,06,12,15,31,16.40
2008,06,12,15,32,16.50
2008,06,12,15,33,16.60
2008,06,12,15,34,16.70
2008,06,12,15,35,16.70
2008,06,12,15,36,16.70
2008,06,12,15,37,16.60
2008,06,12,15,38,16.50
2008,06,12,15,39,16.40
2008,06,12,15,40,16.40
2008,06,12,15,41,16.30
2008,06,12,15,42,16.30
2008,06,12,15,43,16.30
2008,06,12,15,44,16.30
2008,06,12,15,45,16.30
2008,06,12,15,46,16.40
2008,06,12,15,47,16.40
2008,06,12,15,48,16.50
2008,06,12,15,49,16.60
2008,06,12,15,50,16.70
2008,06,12,15,51,16.80
2008,06,12,15,52,16.80
2008,06,12,15,53,16.60
2008,06,12,15,54,16.60
2008,06,12,15,55,16.60
2008,06,12,15,56,16.60
2008,06,12,15,57,16.60
2008,06,12,15,58,16.60
2008,06,12,15,59,16.50
2008,06,12,16,00,16.50
2008,06,12,16,01,16.50
2008,06,12,16,02,16.60
2008,06,12,16,03,16.70
2008,06,12,16,04,16.70
2008,06,12,16,05,16.80
2008,06,12,16,06,16.80
2008,06,12,16,07,16.70
2008,06,12,16,08,16.70
2008,06,12,16,09,16.50
2008,06,12,16,10,16.40
2008,06,12,16,11,16.30
2008,06,12,16,12,16.20
2008,06,12,16,13,16.20
2008,06,12,16,14,16.30
2008,06,12,16,15,16.40
2008,06,12,16,16,16.50
2008,06,12,16,17,16.70
2008,06,12,16,18,16.70
2008,06,12,16,19,16.70
2008,06,12,16,20,16.70
2008,06,12,16,21,16.70
2008,06,12,16,22,16.70
2008,06,12,16,23,16.50
2008,06,12,16,24,16.50
2008,06,12,16,25,16.40
2008,06,12,16,26,16.40
2008,06,12,16,27,16.30
2008,06,12,16,28,16.20
2008,06,12,16,29,16.20
2008,06,12,16,30,16.10
2008,06,12,16,31,16.00
2008,06,12,16,32,15.90
2008,06,12,16,33,15.90
2008,06,12,16,34,15.90
2008,06,12,16,35,15.90
2008,06,12,16,36,15.80
2008,06,12,16,37,15.80
2008,06,12,16,38,15.80
2008,06,12,16,39,15.70
2008,06,12,16,40,15.70
2008,06,12,16,41,15.70
2008,06,12,16,42,15.80
2008,06,12,16,43,15.80
2008,06,12,16,44,15.90
2008,06,12,16,45,15.90
2008,06,12,16,46,15.90
2008,06,12,16,47,15.90
2008,06,12,16,48,15.90
2008,06,12,16,49,15.90
2008,06,12,16,50,15.90
2008,06,12,16,51,15.90
2008,06,12,16,52,15.90
2008,06,12,16,53,15.80
2008,06,12,16,54,15.80
2008,06,12,16,55,15.90
2008,06,12,16,56,15.80
2008,06,12,16,57,15.80
2008,06,12,16,58,15.80
2008,06,12,16,59,15.90
2008,06,12,17,00,15.90
2008,06,12,17,01,15.90
2008,06,12,17,02,15.90
2008,06,12,17,03,15.90
2008,06,12,17,04,15.80
2008,06,12,17,05,15.80
2008,06,12,17,06,15.70
2008,06,12,17,07,15.70
2008,06,12,17,08,15.60
2008,06,12,17,09,15.50
2008,06,12,17,10,15.50
2008,06,12,17,11,15.40
2008,06,12,17,12,15.30
2008,06,12,17,13,15.30
2008,06,12,17,14,15.30
2008,06,12,17,15,15.30
2008,06,12,17,16,15.30
2008,06,12,17,17,15.30
2008,06,12,17,18,15.30
2008,06,12,17,19,15.40
2008,06,12,17,20,15.40
2008,06,12,17,21,15.50
2008,06,12,17,22,15.60
2008,06,12,17,23,15.60
2008,06,12,17,24,15.50
2008,06,12,17,25,15.40
2008,06,12,17,26,15.20
2008,06,12,17,27,15.10
2008,06,12,17,28,15.00
2008,06,12,17,29,15.00
2008,06,12,17,30,15.00
2008,06,12,17,31,15.10
2008,06,12,17,32,15.00
2008,06,12,17,33,15.00